Regional Weather Roundup
Issued by NWS New Orleans/Baton Rouge, LA

Home | Current Version | Previous Version | Graphics & Text | Print | Product List | Glossary On
Versions: 1 2 3 4 5 6 7 8 9 10 11 12 13 14 15 16 17 18 19 20 21 22 23 24 25 26 27 28 29 30 31 32 33 34 35 36 37 38 39 40 41 42 43 44 45 46 47 48 49 50
313
ASUS44 KLIX 292210
RWRLIX
NEW ORLEANS REGIONAL WEATHER ROUNDUP
NATIONAL WEATHER SERVICE NEW ORLEANS LA
500 PM CDT WED OCT 29 2014

NOTE: "FAIR" INDICATES FEW OR NO CLOUDS BELOW 12,000 FEET WITH NO
      SIGNIFICANT WEATHER AND/OR OBSTRUCTIONS TO VISIBILITY.
      SKY/WX - SKY CONDITION AND SIGNIFICANT WEATHER.
      TMP - AIR TEMPERATURE.     DP    - DEWPOINT TEMPERATURE.
      RH  - RELATIVE HUMIDITY.   PRES  - PRESSURE.
      HI  - HEAT INDEX.          WCI   - WIND CHILL INDEX.

*  THESE STATIONS ARE NOT NWS OR FAA STATIONS AND ARE NOT UNDER
   NWS QUALITY CONTROL.

LAZ038-040-048-061>063-065>067-069-292300-
SOUTHEAST LOUISIANA

CITY           SKY/WX    TMP DP  RH WIND       PRES   REMARKS
N.O. AUDUBON     N/A     82  67  61 MISG        N/A
N.O. INTL ARPT MOSUNNY   80  63  55 NW7       30.00S
N.O. LAKEFRONT SUNNY     80  67  64 W6        30.01S
N.O. DOWNTOWN*   N/A     82  63  51 CALM      30.01S
SLIDELL        LGT RAIN  74  68  81 NW3       30.00R
BATON ROUGE    PTSUNNY   75  64  68 NW8       30.04R
BOOTHVILLE     SUNNY     80  68  66 CALM      30.01F
BELLE CHASSE   PTSUNNY   84  62  47 VRB6      29.99F
BOGALUSA*        N/A     78  67  67 N12       30.03R
NEW ROADS*     CLOUDY    73  64  73 NW9       30.06S
GONZALES*      MOCLDY    80  69  67 NW9       30.01R
HAMMOND*       NOT AVBL
HOUMA*         MOSUNNY   82  63  51 NW7       30.00S
PORT FOURCHON* PTCLDY    81  68  65 W7        30.05R

$$

MSZ070-080>082-292300-
SOUTHERN MISSISSIPPI

CITY           SKY/WX    TMP DP  RH WIND       PRES   REMARKS
MCCOMB         PTSUNNY   73  62  68 N14       30.05R
GULFPORT       MOSUNNY   81  65  58 N3        29.99S
BILOXI         PTSUNNY   80  69  69 VRB2      30.00R
PASCAGOULA     PTSUNNY   76  69  79 S3        29.99S
STENNIS ARPT*  MOSUNNY   82  61  47 NW3       30.00S

$$

COASTAL OBSERVATIONS
LAKE AND NEARSHORE STATIONS

STATION/POSITION TIME  TEMP    WIND        PRES    WAVE
                       AIR SEA DIR/SP/G            HT/PER
                 (UTC) (F)     (DEG/KT/KT) (MB)    (FT/S)
PASCAGOULA       2200   75      40/  2/  2 1015.3
WAVELAND YACHT   2200   79     170/  3/  4 1015.0
GRAND ISLE       2200   83 78   CALM  /  2 1016.8
SOUTHWEST PASS   2200   88 79              1016.6
NEW CANAL        2200   80 73  270/  2/  4 1016.5
SHELL BEACH      2200   78 72  330/  5/  5 1015.8

OFFSHORE STATIONS

STATION/POSITION TIME  TEMP    WIND        PRES    WAVE
                       AIR SEA DIR/SP/G            HT/PER
                 (UTC) (F)     (DEG/KT/KT) (MB)    (FT/S)
64 S DAUPHIN ISL 2125   77 80  360/  6/  8 1016.7    2/ 6

$$




USA.gov is the U.S. government's official web portal to all federal, state and local government web resources and services.